Theta_e
349 350 351 354 354 354 355 353 354 345 345 344 345 350 351 351 353 353 350 345 344 348 347 349 349 351 354 353 353 353 352 350 345 344 337 337 342 345 345 349 350 353 353
349 351 349 351 355 355 354 354 354 346 347 344 342 350 352 353 352 353 353 353 354 353 351 349 345 344 348 352 354 354 353 350 345 342 338 342 347 344 347 348 348 352 352
350 351 352 351 352 354 353 351 354 354 350 346 347 352 353 352 352 346 352 354 354 354 354 354 351 353 353 352 352 353 350 343 346 347 349 349 350 347 348 349 335 351 350
350 351 351 348 350 354 352 349 352 353 353 350 353 351 349 349 353 354 353 354 354 353 353 351 350 350 352 352 352 350 347 341 345 349 351 350 349 347 347 347 348 352 350
350 351 353 349 352 353 350 351 354 354 351 352 349 348 348 353 353 353 354 353 352 354 353 353 352 350 346 348 350 345 340 341 347 351 349 348 347 349 349 346 346 350 348
348 352 350 353 353 354 351 350 351 350 352 350 348 348 354 354 353 354 353 354 352 353 353 353 351 350 350 347 345 345 344 342 346 349 343 346 347 346 348 350 348 348 348
347 352 351 351 353 353 349 353 349 351 352 352 354 353 353 352 354 354 355 354 350 353 353 353 352 350 347 347 348 347 346 348 352 344 345 348 349 340 346 349 352 348 348
347 347 350 350 351 350 351 351 347 348 354 354 352 353 352 353 354 354 354 352 353 352 352 353 352 351 351 350 346 343 341 346 348 346 344 348 337 341 353 352 344 341 347
345 347 349 351 353 353 353 351 353 352 353 351 354 354 352 355 355 354 351 347 351 350 349 350 350 349 351 351 347 342 339 341 347 348 346 348 335 336 349 352 349 349 350
344 345 347 348 348 350 350 353 353 353 354 354 354 353 354 354 353 348 342 342 345 345 346 346 349 348 346 344 343 343 341 348 351 349 350 348 341 332 342 345 350 349 344
344 344 346 347 349 350 349 351 350 352 354 352 352 353 350 349 349 343 353 346 342 343 343 342 343 344 343 345 349 346 346 357 348 347 351 346 342 334 342 349 350 350 349
344 344 345 346 347 347 346 351 351 351 349 347 346 348 350 348 349 351 350 342 340 340 340 342 344 344 345 352 355 351 352 354 350 346 352 346 344 339 336 341 342 342 347
343 343 344 344 346 346 346 348 347 348 346 345 348 350 350 349 350 348 349 346 349 351 349 351 350 350 349 351 354 353 353 349 351 349 350 343 343 343 338 340 342 346 343
343 343 343 344 344 346 347 343 345 346 347 344 347 351 350 350 349 349 348 349 354 348 347 347 346 351 352 354 352 350 350 350 344 351 350 345 343 343 344 339 339 346 345
342 342 342 345 345 346 349 345 347 347 346 342 345 349 349 347 348 349 349 350 350 349 349 347 346 350 353 352 353 351 350 349 350 348 355 350 346 344 343 345 341 341 343
340 341 341 345 347 347 346 346 346 346 343 343 343 345 349 348 348 349 351 351 349 349 348 348 350 352 353 352 350 351 347 348 347 347 348 351 351 349 345 343 343 342 341
339 339 340 344 347 348 347 348 347 345 343 343 343 345 348 350 351 352 351 351 350 350 351 351 354 353 353 349 349 349 346 348 345 349 347 349 352 350 350 346 344 341 341
339 339 338 338 343 346 347 348 344 342 343 343 344 347 351 353 355 356 353 349 350 349 348 351 351 352 352 350 348 342 345 346 348 346 345 349 345 355 354 351 346 344 342
343 340 340 338 338 343 345 344 343 344 346 345 345 346 354 354 354 357 352 350 353 349 350 351 351 352 347 348 346 344 345 347 344 343 346 346 345 347 350 357 350 347 344
346 343 340 341 338 340 341 342 341 346 346 345 344 345 353 352 353 353 350 353 355 352 349 356 354 353 350 349 349 347 346 345 343 343 345 346 348 353 356 357 356 355 349
348 349 342 342 342 342 341 340 343 345 345 346 346 347 351 353 354 356 353 351 353 352 357 355 353 352 350 346 344 345 346 347 343 343 345 348 351 348 346 347 357 354 351
350 349 350 342 344 345 342 341 343 344 344 345 345 347 352 354 354 354 354 351 356 355 355 354 350 347 346 343 344 345 346 349 343 343 343 344 347 346 347 347 351 352 348
350 351 351 350 345 346 342 342 344 345 344 344 345 350 352 355 357 357 358 357 359 351 354 351 349 346 344 342 338 343 347 351 343 341 341 343 343 340 343 345 346 344 341
351 352 352 352 349 348 345 342 345 345 344 342 343 347 357 359 360 356 356 356 356 351 350 348 344 341 338 338 338 339 343 344 346 348 338 340 338 338 337 340 342 339 339
350 351 353 354 354 350 349 343 346 346 345 344 352 356 357 354 354 353 356 354 353 347 346 345 345 343 342 341 345 340 344 345 346 345 348 336 334 335 333 334 338 340 338
350 350 351 355 357 354 354 350 350 349 348 352 354 356 352 351 351 351 352 352 351 349 346 344 342 342 345 344 342 342 345 345 342 342 343 341 337 331 330 329 332 334 336
Wind_Speed
14 14 13 11 10 10 10 13 15 14 12 12 12 12 10 10 8 8 8 7 7 6 7 8 8 8 7 7 8 8 8 8 8 7 8 10 9 9 11 14 15 14 16
19 16 15 12 11 11 12 12 14 14 12 11 11 11 11 10 9 9 9 8 8 8 8 8 8 8 8 9 8 8 9 8 8 9 10 11 8 8 10 12 4 16 17
19 15 14 13 11 12 11 11 12 12 11 10 9 10 10 10 9 10 10 10 10 10 10 9 9 9 9 9 8 8 7 8 9 11 14 10 7 9 11 12 14 14 16
19 15 14 14 11 12 13 12 11 11 10 8 8 9 10 10 10 10 10 11 10 10 10 10 10 9 8 9 8 7 6 9 9 9 12 11 11 10 10 14 17 16 16
19 18 18 15 13 12 12 12 12 11 11 11 10 10 11 11 10 10 10 10 10 10 9 9 8 9 8 9 8 7 6 7 4 4 10 11 13 10 9 13 13 14 14
17 20 15 15 14 13 13 12 12 12 11 10 11 11 10 10 9 10 9 9 10 9 8 7 7 6 6 6 5 4 5 5 4 5 1 12 13 12 9 10 11 10 12
17 16 15 15 14 13 12 12 12 11 11 10 10 10 11 10 9 9 9 9 7 7 6 5 4 4 3 3 2 1 1 3 4 3 3 7 15 13 13 10 10 10 10
17 16 13 14 14 13 13 13 12 13 10 11 9 11 10 10 9 9 8 7 7 5 4 3 2 2 1 1 1 2 2 5 6 8 5 8 9 11 11 11 10 9 10
15 19 15 14 12 12 13 12 12 11 12 11 11 10 11 9 9 8 7 6 6 5 4 3 2 2 4 5 5 4 3 6 8 8 8 10 6 9 12 10 10 9 9
14 16 17 15 14 13 12 13 12 12 12 10 10 10 10 9 8 8 7 6 5 4 2 1 3 5 7 7 7 6 5 3 7 7 7 11 6 11 13 13 12 11 11
13 14 18 13 17 16 14 12 11 11 11 10 9 10 9 9 8 6 7 5 4 3 2 3 5 7 8 11 10 10 8 9 4 5 16 8 5 10 13 12 12 12 11
16 15 15 16 17 13 15 14 12 11 10 10 9 9 9 10 8 6 5 4 2 2 2 3 5 8 11 18 17 6 13 11 10 8 8 3 7 10 12 12 12 12 12
17 16 15 16 14 17 15 12 14 13 13 10 9 9 7 7 5 6 6 5 4 3 5 3 4 8 7 14 10 8 12 5 2 8 13 5 7 11 11 12 12 13 13
17 16 16 14 16 14 14 13 12 13 11 10 10 11 7 8 8 6 4 4 2 2 2 3 6 5 8 6 13 10 9 10 12 4 4 10 5 8 11 12 13 13 13
18 17 16 15 14 12 9 12 7 9 9 9 11 11 9 9 7 6 5 5 3 4 4 6 5 6 8 11 13 9 7 9 4 13 13 6 3 6 9 12 13 14 14
17 18 18 17 17 14 15 11 13 10 10 9 10 10 9 8 5 5 4 5 5 4 4 6 6 6 10 15 5 12 10 12 15 3 11 14 2 5 9 11 13 14 14
16 17 18 17 17 16 16 14 13 12 13 13 12 10 10 9 6 6 6 6 6 5 5 4 4 7 10 13 12 7 6 8 8 7 11 4 8 11 8 13 14 15 15
15 16 17 18 19 18 17 17 15 14 14 13 12 12 12 10 8 7 7 8 5 5 4 3 4 4 6 10 14 11 11 9 4 8 8 9 10 6 9 12 14 15 16
13 16 17 17 19 19 18 16 15 14 13 13 12 12 12 10 9 9 7 5 0 4 4 4 5 3 9 11 14 3 26 2 9 11 7 7 6 7 10 13 9 12 15
16 15 16 17 17 19 18 17 16 16 15 14 14 14 13 10 9 9 10 6 5 7 5 3 4 5 8 13 16 19 16 13 4 6 5 6 3 5 7 2 4 12 17
19 18 18 17 16 18 18 19 19 17 16 15 14 13 8 10 11 9 10 10 12 9 4 5 2 3 5 14 15 18 23 18 7 2 4 2 3 4 5 5 5 3 8
22 21 20 20 20 20 18 19 18 17 16 15 14 14 13 11 11 10 11 11 2 8 6 4 4 5 4 8 9 11 8 8 18 3 4 3 4 3 7 7 8 14 14
24 24 24 24 25 24 21 19 17 14 14 14 14 13 13 13 10 11 9 6 2 4 5 2 3 5 6 9 7 4 4 3 8 6 3 3 3 3 5 9 7 11 14
26 26 26 27 27 27 26 21 20 18 15 16 13 9 9 7 6 7 8 8 8 8 6 2 2 4 10 10 9 18 27 19 3 3 2 1 2 3 4 6 8 8 9
27 26 27 27 27 26 28 25 22 20 15 15 8 8 8 5 5 4 9 10 10 6 5 5 5 7 11 16 15 15 21 20 20 13 3 6 2 2 3 5 5 9 9
20 20 24 26 25 26 24 28 20 20 20 4 5 7 6 6 6 5 6 8 8 7 6 6 5 4 10 13 14 14 15 12 7 8 6 5 7 5 4 4 3 5 7
Wind_Direction
140 145 144 134 130 124 115 120 137 142 134 131 126 124 128 134 132 120 118 118 117 118 117 117 113 106 101 97 92 88 89 100 112 114 113 123 131 136 139 133 126 123 124
142 145 145 140 136 130 125 123 136 147 142 137 127 133 134 134 132 131 124 118 113 108 108 109 105 107 112 106 102 99 99 102 107 117 120 120 126 134 135 121 120 129 127
136 140 139 141 144 134 128 130 135 142 146 142 138 134 143 145 137 130 125 119 111 110 107 104 104 110 109 108 107 101 106 112 124 119 119 123 127 135 135 130 174 137 136
133 139 142 148 148 140 135 138 138 142 150 149 144 152 146 139 135 128 128 121 116 113 110 100 101 105 112 111 109 105 102 118 139 167 163 138 128 134 136 140 156 144 144
134 138 138 147 148 138 137 143 142 145 148 154 151 149 148 140 137 126 123 119 118 118 116 108 103 99 102 105 108 99 112 126 128 262 162 140 127 138 146 142 149 149 144
136 129 141 143 142 141 145 143 145 146 143 143 143 146 139 132 132 130 125 124 120 121 121 116 117 111 112 109 106 107 116 155 253 237 94 121 124 139 139 131 146 155 144
139 125 140 145 146 148 148 141 143 145 143 146 151 146 135 138 135 131 125 121 127 123 128 128 125 111 117 116 109 117 162 217 255 129 116 97 122 138 141 154 158 155 156
144 134 144 150 152 148 145 150 151 152 149 155 151 139 142 145 153 143 134 127 122 126 131 140 152 185 201 230 239 264 274 251 254 145 167 115 109 152 155 161 163 167 162
147 141 151 157 155 149 154 156 154 152 148 148 149 152 152 154 145 142 139 134 130 135 139 154 186 235 252 254 249 245 254 268 261 186 178 150 172 173 172 177 175 181 183
156 149 153 154 160 163 164 165 163 163 155 154 155 156 162 162 157 158 143 139 145 147 157 218 254 265 260 250 241 236 244 195 284 176 170 135 153 183 181 188 190 193 194
171 157 156 162 167 165 162 169 164 162 159 164 168 169 169 165 166 179 166 181 172 181 217 259 276 275 271 245 218 220 214 219 176 240 120 135 191 188 186 195 200 203 209
177 165 169 169 159 174 167 161 173 177 175 175 172 173 181 178 162 149 172 222 249 290 313 325 322 307 274 260 238 211 216 179 193 158 121 138 191 193 191 197 205 208 210
176 171 179 171 170 176 169 165 179 178 175 177 178 178 208 170 174 195 183 199 210 297 282 261 289 282 292 309 274 207 207 156 103 148 152 146 182 194 198 198 208 212 216
176 177 181 177 170 186 171 183 177 188 168 181 185 187 188 181 182 210 185 208 222 257 338 315 310 336 293 310 304 280 18 334 273 172 107 118 156 195 206 208 210 216 224
177 183 183 174 180 198 172 189 198 191 177 191 183 194 194 199 191 195 204 229 231 245 278 307 300 307 292 278 296 323 10 290 192 350 152 96 160 216 213 218 220 224 227
181 184 182 180 182 190 188 184 198 194 178 196 192 193 199 206 197 222 235 248 251 266 289 311 305 301 303 306 19 347 327 13 326 291 28 225 354 234 235 228 227 230 233
178 183 183 185 184 188 187 190 195 195 193 191 191 186 194 209 212 229 232 254 269 275 291 275 300 275 271 297 314 274 288 292 336 358 321 298 215 267 233 230 226 226 230
181 181 186 189 184 188 190 190 194 197 195 192 195 197 200 207 219 217 232 245 250 266 239 254 295 284 290 312 317 323 324 330 343 322 280 331 299 234 238 229 229 228 223
188 181 189 189 188 186 188 195 199 193 201 196 199 203 188 211 223 224 242 251 240 245 247 306 350 327 308 316 292 141 261 266 307 308 336 296 291 299 278 225 220 233 231
180 180 193 189 192 186 190 195 198 195 201 204 202 206 181 206 210 218 229 234 235 245 234 70 15 338 332 349 333 325 326 305 323 296 291 285 345 327 336 353 215 248 230
182 182 186 193 194 189 195 197 196 204 204 210 209 208 215 224 205 216 231 222 222 209 84 43 341 358 350 2 340 324 310 310 215 257 309 358 2 344 332 293 353 46 156
189 188 187 191 191 197 202 203 206 206 207 213 212 201 213 220 227 222 233 250 1 108 109 110 28 342 324 360 356 328 310 332 333 16 359 321 19 32 32 41 69 123 127
201 192 195 194 190 193 200 203 211 226 236 220 223 203 208 220 222 232 242 241 259 194 159 175 285 333 338 323 341 343 316 336 351 337 337 357 25 43 62 59 76 110 116
205 200 200 197 196 197 199 197 204 207 220 229 231 209 136 168 170 225 227 205 171 159 179 210 217 349 349 323 309 238 271 248 216 270 284 34 112 83 72 89 91 91 109
210 207 203 197 203 202 198 205 198 214 214 233 165 130 136 123 120 170 176 174 172 181 193 195 238 311 297 293 304 254 255 249 239 242 241 151 139 61 43 52 90 126 118
194 207 206 193 196 205 205 206 207 199 223 219 172 176 190 200 178 186 181 189 196 195 196 240 249 299 282 268 265 270 252 248 249 249 242 241 177 126 105 106 113 106 119